Flag for U.S.A. Weather past 2 weeks in Lynchburg, Virginia, U.S.A.

Now
65 °F

Sunny.


Feels Like: 65 °F
Forecast: 47 / 65 °F
Wind: 16 mph from Northeast

Location: Lynchburg Regional Airport


UV Index: 0 (Low)

Visibility: 10 mi


Pressure: 30.23 "Hg

Humidity: 39%

Dew point: 39 °F

Location of LynchburgLocation

Historic Weather in Lynchburg

°F

Lynchburg temperature yesterday

Maximum temperature yesterday: 59 °F (at 5:54 PM)
Minimum temperature yesterday: 40 °F (at 4:54 AM)
Average temperature yesterday: 50 °F

Past Weeks' High & Low Weather Summary

 TemperatureHumidityPressure
High86 °F (Apr 13, 3:54 PM)94% (Apr 7, 10:01 PM)30.61 "Hg (Apr 7, 10:01 PM)
Low33 °F (Apr 17, 6:54 AM)19% (Apr 10, 2:54 PM)29.55 "Hg (Apr 8, 4:54 AM)
Average59 °F51%30.06 "Hg
* Reported Apr 4 12:54 PM — Apr 19 12:54 PM, Lynchburg, Weather by CustomWeather, © 2014

Note: Actual official high and low records may vary slightly from our data, if they occured in-between our weather recording intervals... More about our weather records

Advertising

Historic Weather Conditions — Data for Previous 24 hours

 ConditionsComfort  
Time TempWeatherWind HumidityBarometerVisibility
12:54 PM
Apr 19
65 °FSunny.12 mph39%30.22 "Hg10 mi
11:54 AM64 °FSunny.14 mph41%30.23 "Hg10 mi
10:54 AM61 °FSunny.9 mph46%30.24 "Hg10 mi
9:54 AM57 °FSunny.12 mph53%30.24 "Hg10 mi
8:54 AM53 °FPassing clouds.8 mph59%30.24 "Hg10 mi
7:54 AM51 °FPartly sunny.5 mph69%30.24 "Hg10 mi
6:54 AM50 °FMostly cloudy.3 mph71%30.23 "Hg10 mi
5:54 AM50 °FOvercast.No wind74%30.22 "Hg10 mi
4:54 AM51 °FOvercast.No wind71%30.21 "Hg10 mi
3:54 AM50 °FOvercast.No wind71%30.21 "Hg10 mi
2:54 AM49 °FOvercast.No wind74%30.22 "Hg10 mi
1:54 AM49 °FOvercast.No wind77%30.24 "Hg10 mi
12:54 AM49 °FClear.No wind74%30.25 "Hg10 mi
11:54 PM
Apr 18
50 °FClear.No wind71%30.27 "Hg10 mi
10:54 PM50 °FClear.No wind71%30.29 "Hg10 mi
9:54 PM50 °FClear.No wind68%30.30 "Hg10 mi
8:54 PM51 °FClear.No wind69%30.29 "Hg10 mi
7:54 PM54 °FSunny.No wind62%30.29 "Hg10 mi
6:54 PM58 °FSunny.No wind47%30.30 "Hg10 mi
5:54 PM59 °FSunny.5 mph48%30.29 "Hg10 mi
4:54 PM58 °FSunny.No wind46%30.29 "Hg10 mi
3:54 PM58 °FSunny.No wind46%30.33 "Hg10 mi
2:54 PM57 °FSunny.No wind47%30.36 "Hg10 mi
Weather by CustomWeather, © 2014

See weather overview